This is the latest recevied weather packets stored in our database for station/object WB6ANP. If no packets are shown the sender has not sent any weather packets the latest 10 day(s).
| Time | Temp. | Humidity | Pressure | Rain* | Wind** | Luminosity | Snow |
|---|---|---|---|---|---|---|---|
| 1777932364 | 28.33° C | 52% | 1006.4 hPa | 0 mm | - | 455 W/m² | - |
| 1777932061 | 28.33° C | 54% | 1006.2 hPa | 0 mm | - | 458 W/m² | - |
| 1777931758 | 27.78° C | 54% | 1006.4 hPa | 0 mm | - | 458 W/m² | - |
| 1777931455 | 27.78° C | 53% | 1006.4 hPa | 0 mm | - | 340 W/m² | - |
| 1777931151 | 28.33° C | 53% | 1006.5 hPa | 0 mm | - | 432 W/m² | - |
| 1777930848 | 27.78° C | 54% | 1006.5 hPa | 0 mm | - | 497 W/m² | - |
| 1777930544 | 27.78° C | 54% | 1006.6 hPa | 0 mm | - | 296 W/m² | - |
| 1777930241 | 27.78° C | 53% | 1006.8 hPa | 0 mm | - | 322 W/m² | - |
| 1777929937 | 27.78° C | 52% | 1006.8 hPa | 0 mm | - | 416 W/m² | - |
| 1777929634 | 27.78° C | 53% | 1006.8 hPa | 0 mm | - | 507 W/m² | - |
| 1777929331 | 28.33° C | 52% | 1006.9 hPa | 0 mm | - | 384 W/m² | - |
| 1777929028 | 28.33° C | 52% | 1007 hPa | 0 mm | - | 451 W/m² | - |
| 1777928725 | 28.89° C | 50% | 1007 hPa | 0 mm | - | 514 W/m² | - |
| 1777928422 | 28.89° C | 50% | 1007.2 hPa | 0 mm | - | 535 W/m² | - |
| 1777928120 | 28.33° C | 50% | 1007.2 hPa | 0 mm | - | 764 W/m² | - |
| 1777927818 | 29.44° C | 50% | 1007.2 hPa | 0 mm | - | 614 W/m² | - |
| 1777927515 | 28.33° C | 51% | 1007.3 hPa | 0 mm | - | 700 W/m² | - |
| 1777927214 | 28.33° C | 53% | 1007.6 hPa | 0 mm | - | 720 W/m² | - |
| 1777926912 | 28.89° C | 52% | 1007.6 hPa | 0 mm | - | 769 W/m² | - |
| 1777926609 | 28.33° C | 50% | 1007.9 hPa | 0 mm | - | 767 W/m² | - |
| 1777926304 | 28.33° C | 51% | 1007.7 hPa | 0 mm | - | 782 W/m² | - |
| 1777926001 | 28.33° C | 52% | 1007.8 hPa | 0 mm | - | 795 W/m² | - |
| 1777925698 | 28.33° C | 51% | 1008 hPa | 0 mm | - | 781 W/m² | - |
| 1777925396 | 27.78° C | 51% | 1008.1 hPa | 0 mm | - | 812 W/m² | - |
| 1777925092 | 28.33° C | 50% | 1008.4 hPa | 0 mm | - | 820 W/m² | - |
* Rain latest hour (hover to see other rain measurements)
** Current wind speed in m/s (hover to see current wind gust speed)